Espace membre
ImprimablePdf
Spa, 25/04/2009, BEL - Les Crêtes de Spa
Liste des rapports > 21km - Classement
Recherche: Page: [1] 2
269 Entrées
 
Les réclamations ne sont plus acceptées, les résultats sont considérés comme définitifs.
RangNrNomAgeIOCEquipeRéelTempsTkmMoy.ScrLocalité
1.591GRENIER Laurent29BELJOGG +1:16:511:16:513:39 16.471ENSIVAL
2.89DORTU Patrick27BELLE JOUR1:18:401:19:023:45 16.023JALHAY
3.526DETHIER Gaël32BELSPA1:19:401:19:403:47 15.894LONTZEN
4.63DEBOUGNOUX Claudy31BEL1:19:481:19:493:47 15.865HENRI-CHAPELLE
5.983KRIKEL Alain39BELENERGYTRI1:20:471:20:473:50 15.676
6.621IERACE Richard38ITA1:21:331:21:343:52 15.527SPA
7.489DAEMS Jan39BELNDURANCE TEAM KASTERLEE1:21:431:21:443:53 15.498LICHTAART
8.556EMBRECHTS Paul33BELHETRIC1:22:171:22:173:55 15.389TIELEN
9.602HAVET Manu39BELLE JOUR1:23:151:23:153:57 15.2011HENRI-CHAPELLE
10.522DENTELLA Guillaume29FRA1:24:391:24:404:01 14.9513ANNECY
11.1024DOCHAIN Xxx34BEL1:25:351:25:574:05 14.7315
12.945FOX David André29BELUNION LORRAINE ARLON1:25:571:25:574:05 14.7316BASTOGNE
13.787RENSONNET Denis30BELSOLWASTEAM1:26:151:26:174:06 14.6717VERVIERS
14.1046BREUER Marc37BEL1:27:571:28:034:11 14.3821
15.1028PAQUAY David Ghislain35BEL1:28:401:28:434:13 14.2722REMICOURT
16.162LEPOINT Francois36BELRFCL1:29:041:29:104:14 14.2025LIÈGE
17.971JAMBON Claude Monique39BEL1:29:191:29:344:15 14.1328BAELEN
18.331LEJEUNE Alain Louis38BEL1:29:381:29:424:16 14.1129ANS
19.842VAESEN Benoit30BELTCBM1:30:261:30:264:18 14.0032OUPEYE
20.648KOZYREFF Dimitri36BEL1:30:181:30:284:18 13.9933GISTOUX
21.45CANISIUS Pierre-Olivier37BELLE JOUR1:30:161:30:324:18 13.9834VISÉ
22.759PEPELS Bart26NLDAV CAESAR1:30:351:30:364:18 13.9735ELSLOO
23.540DOHOGNE Sylvain33BELENERGY TRI1:30:531:30:534:19 13.9337VERVIERS
24.742NERRINCK Johan30BELTDCH1:31:291:31:304:21 13.8440CHERATTE
25.1033HUTSCHEMACKERS Regis29BEL1:31:351:31:364:21 13.8242THIMISTER-CLERMONT
26.411BASILIO Valery33BELACOREYE1:31:471:31:484:22 13.7943WAREMME
27.739MULIER Philippe38BEL1:31:551:31:564:22 13.7744HEUSY
28.940DOUTRELOUX Francois21BEL1:31:571:31:584:22 13.7645
29.1104SCHOUBS Frank Emiel32BEL1:32:371:32:484:24 13.6451BILZEN
30.11MESTREZ Eric34BELLE JOUR1:33:121:33:134:26 13.5854VERVIERS
31.530DEWALLEF Pascal35BELTCBM1:33:021:33:274:26 13.5556SAIVE
32.1030DAUBIOUL Christophe Denis37BEL1:33:241:33:284:26 13.5457BASSENGE
33.1082PIRON Xxx29BELLES BUBUS1:33:071:33:304:26 13.5458
34.262WARNOTTE Pascal32BELLE JOUR1:33:431:33:474:27 13.5061LIÈGE
35.1116HERCOT Pierre-Luc27TEAM 331:33:201:34:054:28 13.4562
36.925PAROTTE Christophe36BEL1:34:141:34:174:29 13.4363
37.782RATINCKX Christophe18BELRIWA1:34:141:34:264:29 13.4065BIERGES
38.49CLOOS Philippe39BELLE JOUR1:34:301:34:304:29 13.3967STER-FRANCORCHAMP
39.1077DANNEMARK Maxime24BELSC BUTG1:34:221:34:384:30 13.3868WAIMES
40.160LEJEUNE David35BELLE JOUR1:34:401:34:424:30 13.3770STEMBERT
41.247VAN DEN BROEK Georges Hubert34BEL1:34:501:34:524:30 13.3472EUPEN
42.872WARNOTTE Jean-Michel38BELBARCHON1:35:111:35:154:31 13.2978LIÈGE
43.919VANDENBROUCK Stephan Laurent35BELENERGYTRI1:35:161:35:194:32 13.2879LIÈGE
44.592GRIMARD Jean-Paul38BELDCLA1:35:251:35:264:32 13.2680ROUX MIROIR
45.1097LEMBREE Frederic26BEL1:35:151:35:364:32 13.2481PETIT-THIER
46.791REYNTIENS Vincent25BELRIWA1:35:341:35:454:33 13.2283OTTIGNIES
47.909VAN HEUSDEN Olivier Rosy36BEL1:35:361:35:484:33 13.2184JALHAY
48.435BOUMANS Eric30BEL1:35:171:36:004:34 13.1986STEMBERT
49.672LECLERCQ Philippe32BEL1:35:591:36:044:34 13.1888LIEGE
50.445BRUWIER Jean-Paul38BELZATOPEK.BE1:36:011:36:094:34 13.1690VISÉ
51.786RENSONNET Christophe37BELENERGY1:36:231:36:244:35 13.1391HEUSY
52.970LAURENT Philippe35BELENERGYTRI1:36:271:36:334:35 13.1193
53.823SWINNEN Philippe37BEL1:36:151:36:444:36 13.0995JALHAY
54.204PAWELKOWSKI David32BELRCA SPA1:37:001:37:014:36 13.0596SPA
55.507DEGROOT Jean-Pierre37BEL1:37:121:37:174:37 13.0197VISÉ
56.516DELSAUTE Brice20BEL1:37:081:37:414:38 12.96100PEPINSTER
57.816SERVAIS David30BELÉNERGY TRI1:37:541:37:564:39 12.92102LIÈGE
58.975VANDECRUYS Wim37BEL1:37:591:38:094:40 12.90105
59.639JORIS Lionel39BELTDCH1:37:561:38:254:40 12.86109GRIVEGNEE
60.822SUN Frederic32FRA1:38:201:38:294:41 12.85110BRUXELLES
61.766PIERARD Alexandre33BEL1000 PATTES1:38:481:38:584:42 12.79113LIMELETTE
62.917BOEDT Nicolas28BELBAC1:38:501:39:024:42 12.78115
63.634JENNES Benjamin26BELENERGYTRI1:38:411:39:044:42 12.78116CLERMONT
64.464COMPÈRE Brice34BELTCBM1:39:221:39:254:43 12.73122HEURE LE ROMAIN
65.968MARTIN Antoine18LIGNE 691:39:031:39:334:44 12.72123
66.753PARMANTIER Christophe34BELTEAM NELLES1:39:201:39:334:44 12.71124WAIMES
67.864VINCKIER Glenn31BEL1:39:221:39:344:44 12.71125BAVIKHOVE
68.474COUNE Benoît35BEL1:39:291:39:474:44 12.69130LIEGE
69.503DEFECHEREUX Fabian38BELPROSPORT1:39:161:39:504:44 12.68131ESNEUX
70.478COUVREUR Jean-Michel36BELBRUSSELS TRIATHLON CLUB1:39:321:39:594:45 12.66135IXELLES
71.497DE HEERING Matthieu35BELSWIFT RUNNING CLUB1:40:081:40:134:46 12.63139IXELLES
72.1107GERKENS William38BEL1:40:101:40:214:46 12.61141
73.1039RENSONNET Didier Luc35BEL1:39:491:40:264:46 12.60143VERVIERS
74.1079GILLES Jean-François Marie32BEL1:39:491:40:304:46 12.59144SPRIMONT
75.441BROUN Jean-Pierre38BEL1:40:371:40:394:47 12.58146WEGNEZ
76.179MARTIN Thomas33FRA1:40:331:41:014:48 12.53158SAINT ANDRÉ
77.260VROMEN Pierre-Yves20BELLE JOUR1:40:571:41:034:48 12.53159
78.662LAMBOTTE Stéphan35BEL1:41:051:41:094:48 12.51162LIEGE
79.517DEMOULIN Fabian35BEL1:41:051:41:114:48 12.51163JALHAY
80.799ROELANDTS Gérald39BEL1:41:061:41:314:49 12.47166ANGLEUR
81.119HALLEUX Jean Marie39BELLE JOUR AC HERVE1:41:271:41:404:50 12.45168HERVE
82.414BAUMANS Hughes37BEL1:41:251:41:424:50 12.45169DALHEM
83.847VAN ESPEN Johan35BEL1:41:441:41:484:50 12.43170CHAUMONT-GISTOUX
84.550DUPONT Francois35BEL1:41:471:41:494:50 12.43171ORBAIS
85.429BODSON Dominic38BEL1:41:531:42:144:51 12.38175GRAND-HALLEUX
86.678LEHEUREUX Olivier35BELFCHA1:42:111:42:174:51 12.37176BRANCHON
87.783RATINCKX Jean-Philippe21BELRIWA1:42:111:42:234:52 12.36178BIERGES
88.521DENOZ Maxime30BELENRGYTRI1:42:171:42:404:52 12.33180JEHANSTER
89.812SCHUSTER Nicolas28FRASPA1:41:571:42:454:53 12.32181BASTOGNE
90.1106LENELLE Francois27BEL1:42:221:42:484:53 12.31182
91.1067LANGOHR Benjamin38BELENERGYTRI1:42:551:43:014:53 12.29183
92.969HUYGHE Michael32BELENERGYTRI1:42:381:43:014:53 12.29184
93.858VERCAMMEN Vincent28BEL1:42:441:43:044:54 12.28186SPA
94.749ORTMANS Alain39BEL1:43:091:43:334:55 12.22189LA CALAMINE
95.949FOGUENNE Olivier Marcel38BEL1:43:471:43:574:56 12.18191STAVELOT
96.1092EVRARD Marc37BEL1:43:591:44:044:56 12.16193WANDRE
97.851VANHULST Benoît29BEL1:44:061:44:334:58 12.11201SPA
98.824TALMAS Olivier37BEL1:44:241:44:554:59 12.07204HENRI-CHAPELLE
99.862VILLERS Stéphane32BELENERGYTRI1:44:261:45:044:59 12.05205MALMEDY
100.419BENZIANE Mourad35BEL1:44:501:45:074:59 12.04207LIEGE
101.424BERTRAND Yves37BEL1:45:131:45:165:00 12.02208LIÈGE
102.705LORENZON Gregory33BELTEAM NELLES1:45:461:46:005:02 11.94215MALMEDY
103.524DESPLANQUE Thibault35BELSAP BELGIUM1:45:541:46:135:03 11.92220BRUXELLES
104.755PARMENTIER Christophe35BEL1:45:561:46:275:03 11.89221TROIS-PONTS
105.1114LAMBERTY Helori26BEL1:46:061:46:345:04 11.88223
106.771PIRSON Fabien36BEL1:46:251:46:355:04 11.88224ESNEUX
107.19BAUTE Benoit39BEL1:46:321:46:365:04 11.87225HEUSY
108.421BERLAGE Geoffroi35BEL1:46:161:46:435:04 11.86228SCHAERBEEK
109.33BOSKIN Bernard21BEL1:46:451:46:505:04 11.85230STAVELOT
110.1061DETHIER Quentin Jean37BEL1:46:401:46:515:04 11.85231GOUVY
111.657LAHAYE Damien39BEL1:46:271:46:585:05 11.83233HENRI-CHAPELLE
112.1037SOLOVICS Sergueï39UKR1:46:411:47:015:05 11.83235
113.930GEERTS Cédric Nicolas31BEL1:46:071:47:055:05 11.82237BLEGNY
114.433BOSSEAU Francois36BEL1:46:121:47:085:05 11.81238BRUXELLES
115.1049DHONDT Frédéric Fernand36BEL1:46:271:47:135:05 11.81239AYWAILLE
116.707LUCIC Stephane28BEL1:46:481:47:165:06 11.80241LIEGE
117.997VANBERG Jean-François Joseph31BEL1:46:561:47:265:06 11.78243WAVRE
118.43BROUWIER Michaël Joseph33BELLE JOUR1:47:251:47:395:07 11.76245HERVE
119.709MAHY Stephane36BEL1:47:061:47:435:07 11.75246RUISBROEK
120.757PEELEN Anthony30BEL1:47:321:47:575:08 11.73248VERVIERS
121.601HAVARD Olivier38BEL1:47:431:48:005:08 11.72250THEUX
122.1001VINCHENT Benoit35BEL1:47:401:48:145:08 11.70255
123.774PLATTES Savery27BEL1:48:051:48:185:09 11.69257VIELSALM
124.450CENNÉ Yves39BEL1:47:571:48:235:09 11.68258ANGLEUR
125.1070LEDENT Sylvain Marie-José33BEL1:47:511:48:285:09 11.67259VERVIERS
126.1042DIEDEREN Stéphen François31BELDZY1:48:141:48:485:10 11.63267WANZE
127.767PIGEOLET Vincent29BEL1:48:231:48:535:10 11.63268B-L-C
128.1080XHONNEUX Renaud33BEL1:48:381:48:545:10 11.62269
129.417BEFAHY Fabian32BEL1:48:131:49:105:11 11.60273GILLY
130.1084BLAIN Thomas30BELLES BUBUS1:49:161:49:175:11 11.58274
131.1083SECHEHAYE Michaël Rose30BELLES BUBUS1:49:241:49:245:12 11.57278NAMUR
132.1035DENIS Yves Bernard35BEL1:49:151:49:385:12 11.55282VERVIERS
133.680LEJEUNE Damien23BEL1:48:521:49:445:13 11.54283SPA
134.1095CLOES Frederic371:49:381:49:565:13 11.51286
135.836TOUSSAINT Patrice38BEL1:49:361:50:035:13 11.50289ANGLEUR
136.297MATTERN Berti31BEL1:49:091:50:065:14 11.50291CHAUDFONTAINE
137.610HERZE Marc24BEL1:49:131:50:125:14 11.49292BEYNEHEUSAY
138.907VAN DER VORST Willem38NLD1:50:141:50:175:14 11.48293
139.237SKUPIEWSKI Grégory Georges30BELLE JOUR1:49:591:50:175:14 11.48294THIMISTER-CLERMONT
140.407AUBIER David37BEL1:50:171:50:345:15 11.45298HEUSY
141.470CORNET Damien35BELKURISTO1:50:031:50:355:15 11.45299SPA
142.965LIBEREK David32BELSYMBOLES1:49:351:50:375:15 11.44300
143.2SCHOONBROODT Benoit37BELLE JOUR1:50:301:50:545:16 11.41303PEPINSTER
144.1086GHEURY Philippe37BEL1:50:491:50:575:16 11.41304SAINT-GEORGES-SUR-MEUSE
145.1060GIFFROY Xavier30BEL1:50:571:51:215:17 11.37311VERVIERS
146.626JALLET Pierre26BEL1:49:351:51:235:17 11.36312CORENNE
147.1074DESCHAMPHELEIRE Sébastien Olivier34BEL1:50:451:51:245:17 11.36315FERRIÈRES
148.1003COMPERE Michel25BELENERGYTRI1:50:461:51:245:17 11.36316
149.1112DARDENNE Pierre-Yves30BEL1:51:031:51:325:18 11.35317
150.525DESSART Benoit28BEL1:51:561:52:075:19 11.29322VIERSET-BARSE
151.1006MAHAUX Yoann Eloi25BEL1:51:501:52:215:20 11.27324SOUMAGNE
152.1065DELSEM Kevin18BEL1:51:451:52:225:20 11.26326
152.1066WARNIMONT Arnaud18BEL1:51:441:52:225:20 11.26326
154.1054ROGIERS Arnout Jan34BEL1:52:141:52:295:20 11.25332ASSE
155.1099FASSIN Jérôme Emmanuel32BEL1:52:011:52:405:21 11.24337MALMEDY
156.578GARIN Yves36BEL1:52:361:52:455:21 11.23338LIÈGE
157.624JACQUES Christophe27BEL1:52:501:53:035:22 11.20342GOUVY
158.935DELVENNE Jean-François Dominique39BEL1:52:091:53:095:22 11.19343LIÈGE
159.936GODARD François Frédéric39BEL1:52:101:53:095:22 11.19344ARLON
160.401ALAIME Sebastien37BEL1:52:431:53:095:22 11.19345LIMAL
161.15BALHAN Xavier31BELENERGYTRI1:52:321:53:135:23 11.18350VERVIERS
162.745NIX Daniel38BEL1:52:511:53:215:23 11.17352HENRI-CHAPELLE
163.1118DENOEL Jean-Sébastien27BELPELLOS1:53:021:53:465:24 11.13358
164.555EK Gérôme31BEL1:53:181:54:045:25 11.10364SPRIMONT
165.456CLOSSET Olivier36BEL1:53:371:54:185:26 11.07367BEYNE HEUSAY
166.638JOIE Jean-Michel29BEL1:54:121:54:275:26 11.06370FEXHE-LE-HAUT-CLOCHER
167.972DEMAZY Steve38BEL1:53:471:54:375:26 11.04374
168.587GOFFIN Fabrice38BEL1:54:061:54:415:27 11.04375SAINT-LÉGER
169.541DOLHEN Pierre36BELFCHA1:54:301:54:495:27 11.03376ORP-JAUCHE
170.848VAN ONACKER Michaël34BELADDM OGY1:54:381:55:135:28 10.99383HUISSIGNIES
171.1094COOLEN Laurent Elie27BEL1:54:361:55:325:29 10.96387WELKENRAEDT
172.557EVRARD David33BEL1:54:481:55:345:29 10.95389LIÈGE
173.911WILLEM Bernard38BELCELESTES1:55:191:55:385:29 10.95390
174.987HANZEN Thibaut19BEL1:55:261:55:455:30 10.94392
175.741NAMUR Bernard29BEL1:55:381:55:535:30 10.92395ANDRIMONT
176.141JOSIS Nicolas28BEL1:55:321:55:555:30 10.92396ESNEUX
177.38BRENNECKE David25BELLE JOUR1:55:271:55:595:30 10.91397VERVIERS
178.687LEMASSON Christian30BEL1:55:531:56:105:31 10.90402TROIS-PONTS
179.455CLOSSET Frédérick38BELTDCH1:55:401:56:215:31 10.88407LIÈGE
180.901AZZOUZI Mustapha37BEL1:55:351:56:235:32 10.88409
181.758PEETERS Quentin30BELSPT WAVRE1:56:281:56:325:32 10.86412SCHAERBEEK
182.819SMETS Bruno37BEL1:55:481:56:335:32 10.86413AUBEL
183.878WINTEIN Johan29BELRFCL1:55:461:56:385:32 10.85415SERAING
184.590GREGOIRE Bernard35BEL1:56:091:56:475:33 10.84418BASSENGE
185.32BOSKIN Simon291:56:101:56:505:33 10.83420
186.675LEFEBVRE Hubert35BEL1:56:501:56:525:33 10.83421BRUXELLES
187.979KUPPENS Olivier Godefroid39BEL1:56:261:56:535:33 10.83422ESNEUX
188.912CEULEMANS Nicolas Christian39BELANTILOPE OTTIGNIE1:56:451:57:045:33 10.81423INCOURT
189.481CRATZBORN Jerome32BELFC BILSTAIN1:57:141:57:535:36 10.74431EUPEN
190.839TROUPIN Charles27BEL1:56:531:57:585:36 10.73433VERVIERS
191.686LEMAL Pascal37BEL1:56:581:58:005:36 10.73434SPRIMONT
192.111GUILLAUME Damien Ginette27BELLE JOUR1:57:481:58:035:36 10.72435VERVIERS
193.893JEWASINSKI Serge Jean38BEL1:57:591:58:085:36 10.72436JALHAY
194.496DE DAPPER David36BELMYSTÈRE1:58:231:58:305:38 10.68438BRUXELLES
195.164LODOMEZ Olivier28BEL1:58:121:58:455:38 10.66439ANDRIMONT
196.40BRÉVER Jean-François34BELLE JOUR1:58:251:58:475:38 10.66440ANDRIMONT
197.1007LEJEUNE Olivier36BEL1:58:161:58:485:38 10.65442
DNF: abandon; DSQ: disqualifié; Vitesse en km/h